La Grange, GA

1:44 PM EDT on April 25, 2017 (GMT -0400)
Lagrange-Callaway

Weather History for KLGC - July, 2013

Change the Weather History Date:

Wednesday, July 31, 2013

  Actual Average Record
Temperature  
Mean Temperature 76 °F -  
Max Temperature 80 °F 88 °F 99 °F (1986)
Min Temperature 72 °F 67 °F 62 °F (1965)
Cooling Degree Days 11    
Growing Degree Days 26 (Base 50)    
Moisture  
Dew Point 73 °F    
Average Humidity 92    
Maximum Humidity 99    
Minimum Humidity 77    
Precipitation  
Precipitation 0.00 in - - ()
Sea Level Pressure  
Sea Level Pressure 30.09 in    
Wind  
Wind Speed 2 mph (SSE)    
Max Wind Speed 10 mph    
Max Gust Speed -    
Visibility 8 miles    
Events Rain , Thunderstorm    
Averages and records for this station are not official NWS values.
T = Trace of Precipitation, MM = Missing Value Source: NWS Daily Summary

Daily Weather History Graph

Daily Weather History Graph

Search for Another Location

Airport or City:

Trip Planner

Search our weather history database for the weather conditions in past years. The results will help you decide how hot, cold, wet, or windy it might be!

Date:

Astronomy

Jul. 31, 2013 Rise Set
Actual Time 6:53 AM EDT 8:39 PM EDT
Civil Twilight 6:26 AM EDT 9:06 PM EDT
Nautical Twilight 5:53 AM EDT 9:39 PM EDT
Astronomical Twilight 5:18 AM EDT 10:13 PM EDT
Moon 1:47 AM EDT (7/31) 3:54 PM EDT (7/31)
Length of Visible Light 14h 40m
Length of Day
13h 46m
Waning Crescent, 32% of the Moon is Illuminated
Jul 31
Waning Crescent
Aug 6
New
Aug 14
First Quarter
Aug 20
Full
Aug 28
Last Quarter

Hourly Weather History & Observations

Time (EDT) Temp. Heat Index Dew Point Humidity Pressure Visibility Wind Dir Wind Speed Gust Speed Precip Events Conditions
12:15 AM 76.3 °F - 74.5 °F 94% 30.14 in 10.0 mi Calm Calm - N/A   Scattered Clouds
12:35 AM 76.1 °F - 74.5 °F 95% 30.13 in 10.0 mi Calm Calm - N/A   Mostly Cloudy
12:55 AM 77.0 °F - 74.1 °F 91% 30.14 in 10.0 mi Calm Calm - N/A   Overcast
1:15 AM 76.6 °F - 73.6 °F 90% 30.12 in 10.0 mi Calm Calm - N/A   Overcast
1:35 AM 76.6 °F - 72.7 °F 87% 30.12 in 10.0 mi South 5.8 mph - N/A   Overcast
1:55 AM 77.5 °F - 72.5 °F 84% 30.11 in 10.0 mi South 4.6 mph - N/A   Scattered Clouds
2:15 AM 75.7 °F - 72.7 °F 90% 30.10 in 10.0 mi South 3.5 mph - N/A   Mostly Cloudy
2:35 AM 77.5 °F - 73.4 °F 87% 30.11 in 10.0 mi SSW 3.5 mph - N/A   Mostly Cloudy
2:55 AM 78.1 °F - 73.4 °F 85% 30.11 in 10.0 mi SSW 3.5 mph - N/A   Overcast
3:15 AM 77.5 °F - 73.6 °F 88% 30.10 in 10.0 mi SSW 3.5 mph - N/A Rain Light Rain
3:35 AM 77.0 °F - 73.6 °F 89% 30.10 in 10.0 mi SSW 3.5 mph - N/A   Overcast
3:55 AM 76.3 °F - 73.8 °F 92% 30.10 in 10.0 mi Calm Calm - N/A Rain , Thunderstorm Light Thunderstorms and Rain
4:15 AM 74.8 °F - 74.3 °F 98% 30.10 in 5.0 mi Calm Calm - N/A Rain Light Rain
4:35 AM 74.7 °F - 74.3 °F 99% 30.10 in 5.0 mi Calm Calm - N/A   Scattered Clouds
4:55 AM 75.0 °F - 74.5 °F 98% 30.11 in 5.0 mi Calm Calm - N/A Thunderstorm Mostly Cloudy
5:15 AM 75.6 °F - 74.8 °F 98% 30.11 in 7.0 mi Calm Calm - N/A   Overcast
5:35 AM 75.4 °F - 74.5 °F 97% 30.10 in 7.0 mi Calm Calm - N/A Rain Light Rain
5:55 AM 74.8 °F - 74.3 °F 98% 30.10 in 7.0 mi Calm Calm - N/A   Mostly Cloudy
6:15 AM 74.5 °F - 73.8 °F 98% 30.10 in 7.0 mi Calm Calm - N/A Rain Light Rain
6:35 AM 74.3 °F - 73.8 °F 98% 30.10 in 7.0 mi Calm Calm - N/A   Mostly Cloudy
6:55 AM 74.3 °F - 73.8 °F 98% 30.11 in 7.0 mi Calm Calm - N/A   Mostly Cloudy
7:15 AM 74.3 °F - 73.8 °F 98% 30.12 in 5.0 mi Calm Calm - N/A   Light Drizzle
7:35 AM 74.3 °F - 73.8 °F 98% 30.12 in 4.0 mi Calm Calm - N/A Rain Light Rain
7:55 AM 74.3 °F - 73.8 °F 98% 30.12 in 7.0 mi Calm Calm - N/A   Overcast
8:15 AM 73.8 °F - 73.0 °F 98% 30.13 in 7.0 mi NE 5.8 mph - N/A   Overcast
8:35 AM 73.6 °F - 72.5 °F 96% 30.12 in 7.0 mi NNE 3.5 mph - N/A Rain Rain
8:55 AM 73.0 °F - 72.1 °F 97% 30.11 in 1.5 mi East 4.6 mph - N/A Rain Heavy Rain
9:15 AM 72.7 °F - 72.1 °F 98% 30.12 in 1.8 mi NE 4.6 mph - N/A Rain Rain
9:35 AM 72.9 °F - 72.0 °F 97% 30.13 in 2.0 mi South 6.9 mph - N/A Rain Heavy Rain
9:55 AM 73.4 °F - 72.7 °F 98% 30.12 in 7.0 mi Calm Calm - N/A   Light Drizzle
10:15 AM 73.6 °F - 72.7 °F 97% 30.13 in 10.0 mi ESE 4.6 mph - N/A Thunderstorm Overcast
10:55 AM 73.4 °F - 72.5 °F 97% 30.13 in 10.0 mi Calm Calm - N/A Thunderstorm Overcast
11:15 AM 73.0 °F - 72.1 °F 97% 30.12 in 3.0 mi Calm Calm - N/A Rain , Thunderstorm Rain
11:35 AM 72.7 °F - 72.1 °F 98% 30.13 in 1.5 mi North 6.9 mph - N/A Rain , Thunderstorm Light Thunderstorms and Rain
11:55 AM 72.7 °F - 72.1 °F 98% 30.14 in 5.0 mi North 5.8 mph - N/A Rain , Thunderstorm Heavy Thunderstorms and Rain
12:15 PM 72.7 °F - 72.0 °F 98% 30.14 in 1.5 mi NNE 3.5 mph - N/A Rain , Thunderstorm Heavy Thunderstorms and Rain
12:35 PM 72.5 °F - 72.0 °F 98% 30.12 in 2.0 mi Calm Calm - N/A Rain , Thunderstorm Light Thunderstorms and Rain
12:55 PM 72.9 °F - 72.1 °F 98% 30.14 in 10.0 mi NE 4.6 mph - N/A Rain , Thunderstorm Light Thunderstorms and Rain
1:15 PM 74.1 °F - 73.0 °F 96% 30.13 in 10.0 mi Calm Calm - N/A Rain , Thunderstorm Light Thunderstorms and Rain
1:35 PM 75.2 °F - 73.2 °F 94% 30.12 in 10.0 mi East 3.5 mph - N/A   Overcast
1:55 PM 75.9 °F - 73.0 °F 91% 30.11 in 10.0 mi SE 3.5 mph - N/A Thunderstorm Overcast
2:15 PM 77.2 °F - 73.6 °F 89% 30.10 in 10.0 mi East 5.8 mph - N/A   Overcast
2:35 PM 77.2 °F - 73.4 °F 88% 30.09 in 10.0 mi East 5.8 mph - N/A   Overcast
2:55 PM 79.2 °F - 74.3 °F 85% 30.09 in 10.0 mi ESE 3.5 mph - N/A   Mostly Cloudy
3:15 PM 77.7 °F - 73.0 °F 85% 30.08 in 10.0 mi ESE 3.5 mph - N/A   Mostly Cloudy
3:35 PM 77.7 °F - 72.9 °F 85% 30.07 in 10.0 mi East 5.8 mph - N/A   Mostly Cloudy
3:55 PM 78.3 °F - 73.2 °F 84% 30.07 in 10.0 mi East 4.6 mph - N/A   Mostly Cloudy
4:15 PM 80.2 °F 84.9 °F 73.9 °F 81% 30.07 in 10.0 mi SSE 3.5 mph - N/A   Mostly Cloudy
4:35 PM 79.0 °F - 72.7 °F 81% 30.07 in 10.0 mi SSE 5.8 mph - N/A   Mostly Cloudy
4:55 PM 80.1 °F 84.2 °F 73.0 °F 79% 30.06 in 10.0 mi SE 5.8 mph - N/A   Mostly Cloudy
5:15 PM 80.4 °F 85.0 °F 73.2 °F 79% 30.05 in 10.0 mi SSE 8.1 mph - N/A   Mostly Cloudy
5:35 PM 79.9 °F - 72.1 °F 77% 30.04 in 10.0 mi South 4.6 mph - N/A   Scattered Clouds
5:55 PM 80.2 °F 84.6 °F 73.0 °F 79% 30.02 in 10.0 mi South 3.5 mph - N/A   Scattered Clouds
6:15 PM 80.1 °F 84.5 °F 73.6 °F 81% 30.02 in 10.0 mi South 10.4 mph - N/A   Mostly Cloudy
6:35 PM 79.0 °F - 73.2 °F 82% 30.02 in 10.0 mi South 5.8 mph - N/A   Scattered Clouds
6:55 PM 79.0 °F - 73.6 °F 83% 30.01 in 10.0 mi South 5.8 mph - N/A   Mostly Cloudy
7:15 PM 79.7 °F - 73.8 °F 82% 30.01 in 10.0 mi SW 6.9 mph - N/A   Scattered Clouds
7:35 PM 78.8 °F - 73.6 °F 84% 30.02 in 10.0 mi SSW 4.6 mph - N/A   Clear
7:55 PM 77.5 °F - 73.4 °F 87% 30.02 in 10.0 mi SW 3.5 mph - N/A   Scattered Clouds
8:15 PM 76.3 °F - 73.4 °F 91% 30.03 in 10.0 mi SSW 4.6 mph - N/A   Scattered Clouds
8:35 PM 75.4 °F - 72.0 °F 89% 30.04 in 10.0 mi Calm Calm - N/A   Clear
8:55 PM 74.1 °F - 72.3 °F 94% 30.03 in 10.0 mi SSE 4.6 mph - N/A   Clear
9:15 PM 73.6 °F - 72.5 °F 96% 30.03 in 10.0 mi Calm Calm - N/A   Clear
9:35 PM 73.9 °F - 72.3 °F 95% 30.04 in 10.0 mi Calm Calm - N/A   Scattered Clouds
9:55 PM 73.8 °F - 72.5 °F 96% 30.04 in 10.0 mi Calm Calm - N/A   Mostly Cloudy
10:15 PM 74.3 °F - 72.5 °F 94% 30.05 in 10.0 mi Calm Calm - N/A   Overcast
10:35 PM 73.6 °F - 72.7 °F 97% 30.06 in 10.0 mi Calm Calm - N/A   Overcast
10:55 PM 73.4 °F - 72.7 °F 98% 30.05 in 10.0 mi Calm Calm - N/A Rain Rain
11:15 PM 73.4 °F - 72.5 °F 97% 30.04 in 10.0 mi South 3.5 mph - N/A   Overcast
11:35 PM 73.6 °F - 72.5 °F 96% 30.04 in 10.0 mi South 5.8 mph - N/A Rain Light Rain
11:55 PM 73.6 °F - 72.5 °F 96% 30.04 in 10.0 mi SSW 3.5 mph - N/A Rain Light Rain